NORTHEAST SUFFOLK  -  Rip Current Statement Rip Current Statement        NORTHERN NASSAU  -  Rip Current Statement Rip Current Statement        NORTHERN QUEENS  -  Rip Current Statement Rip Current Statement     Air Quality Alert Air Quality Alert        NORTHWEST SUFFOLK  -  Rip Current Statement Rip Current Statement        SOUTHEAST SUFFOLK  -  Rip Current Statement Rip Current Statement        SOUTHERN NASSAU  -  Rip Current Statement Rip Current Statement        SOUTHERN QUEENS  -  Rip Current Statement Rip Current Statement     Air Quality Alert Air Quality Alert        SOUTHWEST SUFFOLK  -  Rip Current Statement Rip Current Statement      

Active alerts

Northern Queens
  Details for Northern Queens Rip Current Statement  +1 additional alert
Southern Queens
  Details for Southern Queens Rip Current Statement  +1 additional alert
Northern Nassau
  Details for Northern Nassau Rip Current Statement
Southern Nassau
  Details for Southern Nassau Rip Current Statement
Northwest Suffolk
  Details for Northwest Suffolk Rip Current Statement
Southwest Suffolk
  Details for Southwest Suffolk Rip Current Statement
Northeast Suffolk
  Details for Northeast Suffolk Rip Current Statement
Southeast Suffolk
  Details for Southeast Suffolk Rip Current Statement


WXM80 ListenWXM80 Stop

You find our weather info also at:

UK Metoffice

WeatherCloud

Weather Underground

Northeastern Weather Network

AWEKAS

Citizen Weather Observer Program (CWOP)

HAMweather, WeatherForYou, PWS Weather


Weather Underground History page Text

Daily Summary for January 9, 2017 Units:  Both    English   Metric
« Previous Day
Next Day »
Daily Weekly Monthly Yearly Custom
  High: Low: Average:
Temperature: 24.0 °F /  -4.4 °C 14.4 °F /  -9.8 °C 18.8 °F /  -7.3 °C
Dew Point: 12.2 °F /  -11 °C 7.2 °F /  -13.8 °C 9.7 °F /  -12.4 °C
Humidity: 84 % 55 % 68 %
Wind Speed: 8.7 mph /  14 km/h - 2.4 mph /  3.9 km/h
Wind Gust: 29.0 mph /  46.7 km/h - -
Wind:- - West
Pressure: 30.74 in /  1040.9 hPa 30.55 in /  1034.4 hPa -
Precipitation: 0.00 in /  0 mm    
Historical Graphs
 
 
Tabular Data for January 9, 2017
Time Temperature Dew Point Pressure Wind Wind Speed Wind Gust Humidity Rainfall Rate (Hourly)
00:02 19.2 °F /  -7.1 °C 9.0 °F /  -12.8 °C 30.55 in /  1034.4 hPa WSW 6.6 mph /  10.6 km/h 29.0 mph /  46.7 km/h 64 % 0.00 in /  0 mm
00:07 19.1 °F /  -7.2 °C 9.3 °F /  -12.6 °C 30.56 in /  1034.8 hPa WNW 7.9 mph /  12.7 km/h 29.0 mph /  46.7 km/h 65 % 0.00 in /  0 mm
00:12 19.1 °F /  -7.2 °C 8.9 °F /  -12.8 °C 30.56 in /  1034.8 hPa NW 7.2 mph /  11.6 km/h 29.0 mph /  46.7 km/h 64 % 0.00 in /  0 mm
00:17 19.0 °F /  -7.2 °C 8.8 °F /  -12.9 °C 30.56 in /  1034.8 hPa WNW 7.7 mph /  12.4 km/h 29.0 mph /  46.7 km/h 64 % 0.00 in /  0 mm
00:22 19.0 °F /  -7.2 °C 9.2 °F /  -12.7 °C 30.56 in /  1034.8 hPa West 6.9 mph /  11.1 km/h 29.0 mph /  46.7 km/h 65 % 0.00 in /  0 mm
00:27 18.9 °F /  -7.3 °C 8.7 °F /  -12.9 °C 30.56 in /  1034.8 hPa NNW 5.8 mph /  9.3 km/h 29.0 mph /  46.7 km/h 64 % 0.00 in /  0 mm
00:33 18.9 °F /  -7.3 °C 9.1 °F /  -12.7 °C 30.57 in /  1035.1 hPa NE 3.0 mph /  4.8 km/h 29.0 mph /  46.7 km/h 65 % 0.00 in /  0 mm
00:38 18.9 °F /  -7.3 °C 8.7 °F /  -12.9 °C 30.56 in /  1034.8 hPa WNW 6.4 mph /  10.3 km/h 29.0 mph /  46.7 km/h 64 % 0.00 in /  0 mm
00:43 18.8 °F /  -7.3 °C 8.6 °F /  -13 °C 30.57 in /  1035.1 hPa NW 8.7 mph /  14 km/h 29.0 mph /  46.7 km/h 64 % 0.00 in /  0 mm
00:48 18.7 °F /  -7.4 °C 8.9 °F /  -12.8 °C 30.57 in /  1035.1 hPa WNW 4.7 mph /  7.6 km/h 29.0 mph /  46.7 km/h 65 % 0.00 in /  0 mm
00:53 18.7 °F /  -7.4 °C 8.9 °F /  -12.8 °C 30.57 in /  1035.1 hPa WNW 8.1 mph /  13 km/h 29.0 mph /  46.7 km/h 65 % 0.00 in /  0 mm
00:58 18.6 °F /  -7.4 °C 9.1 °F /  -12.7 °C 30.57 in /  1035.1 hPa WNW 5.2 mph /  8.4 km/h 29.0 mph /  46.7 km/h 66 % 0.00 in /  0 mm
01:03 18.6 °F /  -7.4 °C 9.1 °F /  -12.7 °C 30.57 in /  1035.1 hPa WSW 7.1 mph /  11.4 km/h 29.0 mph /  46.7 km/h 66 % 0.00 in /  0 mm
01:08 18.5 °F /  -7.5 °C 8.7 °F /  -12.9 °C 30.57 in /  1035.1 hPa West 5.4 mph /  8.7 km/h 29.0 mph /  46.7 km/h 65 % 0.00 in /  0 mm
01:13 18.5 °F /  -7.5 °C 9.0 °F /  -12.8 °C 30.57 in /  1035.1 hPa WNW 7.7 mph /  12.4 km/h 29.0 mph /  46.7 km/h 66 % 0.00 in /  0 mm
01:18 18.4 °F /  -7.6 °C 8.6 °F /  -13 °C 30.58 in /  1035.4 hPa NNW 3.7 mph /  6 km/h 29.0 mph /  46.7 km/h 65 % 0.00 in /  0 mm
01:23 18.3 °F /  -7.6 °C 8.8 °F /  -12.9 °C 30.58 in /  1035.4 hPa WNW 8.3 mph /  13.4 km/h 29.0 mph /  46.7 km/h 66 % 0.00 in /  0 mm
01:28 18.2 °F /  -7.7 °C 8.4 °F /  -13.1 °C 30.58 in /  1035.4 hPa West 3.5 mph /  5.6 km/h 29.0 mph /  46.7 km/h 65 % 0.00 in /  0 mm
01:33 18.2 °F /  -7.7 °C 8.7 °F /  -12.9 °C 30.58 in /  1035.4 hPa NW 6.1 mph /  9.8 km/h 29.0 mph /  46.7 km/h 66 % 0.00 in /  0 mm
01:38 18.1 °F /  -7.7 °C 8.6 °F /  -13 °C 30.59 in /  1035.8 hPa NNW 2.7 mph /  4.3 km/h 29.0 mph /  46.7 km/h 66 % 0.00 in /  0 mm
01:43 18.1 °F /  -7.7 °C 8.6 °F /  -13 °C 30.59 in /  1035.8 hPa WNW 7.4 mph /  11.9 km/h 29.0 mph /  46.7 km/h 66 % 0.00 in /  0 mm
01:48 18.0 °F /  -7.8 °C 8.5 °F /  -13.1 °C 30.59 in /  1035.8 hPa NW 5.7 mph /  9.2 km/h 29.0 mph /  46.7 km/h 66 % 0.00 in /  0 mm
01:54 18.0 °F /  -7.8 °C 8.5 °F /  -13.1 °C 30.60 in /  1036.1 hPa NW 4.3 mph /  6.9 km/h 29.0 mph /  46.7 km/h 66 % 0.00 in /  0 mm
01:59 18.0 °F /  -7.8 °C 8.5 °F /  -13.1 °C 30.60 in /  1036.1 hPa West 3.8 mph /  6.1 km/h 29.0 mph /  46.7 km/h 66 % 0.00 in /  0 mm
02:04 17.9 °F /  -7.8 °C 8.5 °F /  -13.1 °C 30.60 in /  1036.1 hPa WSW 1.9 mph /  3.1 km/h 29.0 mph /  46.7 km/h 66 % 0.00 in /  0 mm
02:09 17.8 °F /  -7.9 °C 8.4 °F /  -13.1 °C 30.60 in /  1036.1 hPa WNW 4.3 mph /  6.9 km/h 29.0 mph /  46.7 km/h 66 % 0.00 in /  0 mm
02:14 17.7 °F /  -7.9 °C 8.3 °F /  -13.2 °C 30.60 in /  1036.1 hPa West 5.1 mph /  8.2 km/h 29.0 mph /  46.7 km/h 66 % 0.00 in /  0 mm
02:19 17.7 °F /  -7.9 °C 8.3 °F /  -13.2 °C 30.61 in /  1036.5 hPa NW 2.6 mph /  4.2 km/h 29.0 mph /  46.7 km/h 66 % 0.00 in /  0 mm
02:24 17.6 °F /  -8 °C 8.2 °F /  -13.2 °C 30.61 in /  1036.5 hPa WNW 3.0 mph /  4.8 km/h 8.0 mph /  12.9 km/h 66 % 0.00 in /  0 mm
02:29 17.5 °F /  -8.1 °C 8.1 °F /  -13.3 °C 30.61 in /  1036.5 hPa WNW 3.0 mph /  4.8 km/h 9.0 mph /  14.5 km/h 66 % 0.00 in /  0 mm
02:34 17.5 °F /  -8.1 °C 8.1 °F /  -13.3 °C 30.61 in /  1036.5 hPa WNW 2.0 mph /  3.2 km/h 10.0 mph /  16.1 km/h 66 % 0.00 in /  0 mm
02:39 17.5 °F /  -8.1 °C 8.1 °F /  -13.3 °C 30.61 in /  1036.5 hPa NNW 4.4 mph /  7.1 km/h 29.0 mph /  46.7 km/h 66 % 0.00 in /  0 mm
02:44 17.5 °F /  -8.1 °C 8.1 °F /  -13.3 °C 30.61 in /  1036.5 hPa WNW 6.0 mph /  9.7 km/h 10.0 mph /  16.1 km/h 66 % 0.00 in /  0 mm
02:49 17.4 °F /  -8.1 °C 8.0 °F /  -13.3 °C 30.61 in /  1036.5 hPa NW 6.2 mph /  10 km/h 29.0 mph /  46.7 km/h 66 % 0.00 in /  0 mm
02:54 17.4 °F /  -8.1 °C 7.9 °F /  -13.4 °C 30.62 in /  1036.8 hPa West 7.0 mph /  11.3 km/h 12.0 mph /  19.3 km/h 66 % 0.00 in /  0 mm
02:59 17.3 °F /  -8.2 °C 7.5 °F /  -13.6 °C 30.61 in /  1036.5 hPa NW 2.0 mph /  3.2 km/h 29.0 mph /  46.7 km/h 65 % 0.00 in /  0 mm
03:04 17.3 °F /  -8.2 °C 7.2 °F /  -13.8 °C 30.61 in /  1036.5 hPa West 5.7 mph /  9.2 km/h 29.0 mph /  46.7 km/h 64 % 0.00 in /  0 mm
03:09 17.3 °F /  -8.2 °C 7.2 °F /  -13.8 °C 30.61 in /  1036.5 hPa WNW 5.0 mph /  8 km/h 29.0 mph /  46.7 km/h 64 % 0.00 in /  0 mm
03:14 17.2 °F /  -8.2 °C 7.4 °F /  -13.7 °C 30.61 in /  1036.5 hPa NW 3.4 mph /  5.5 km/h 29.0 mph /  46.7 km/h 65 % 0.00 in /  0 mm
03:19 17.1 °F /  -8.3 °C 7.3 °F /  -13.7 °C 30.61 in /  1036.5 hPa WSW 1.9 mph /  3.1 km/h 29.0 mph /  46.7 km/h 65 % 0.00 in /  0 mm
03:24 17.0 °F /  -8.3 °C 7.3 °F /  -13.7 °C 30.61 in /  1036.5 hPa NW 2.3 mph /  3.7 km/h 29.0 mph /  46.7 km/h 65 % 0.00 in /  0 mm
03:29 16.9 °F /  -8.4 °C 7.5 °F /  -13.6 °C 30.61 in /  1036.5 hPa NW 4.2 mph /  6.8 km/h 29.0 mph /  46.7 km/h 66 % 0.00 in /  0 mm
03:34 16.9 °F /  -8.4 °C 7.5 °F /  -13.6 °C 30.61 in /  1036.5 hPa West 2.6 mph /  4.2 km/h 29.0 mph /  46.7 km/h 66 % 0.00 in /  0 mm
03:39 16.8 °F /  -8.4 °C 7.4 °F /  -13.7 °C 30.61 in /  1036.5 hPa WNW 0.9 mph /  1.4 km/h 29.0 mph /  46.7 km/h 66 % 0.00 in /  0 mm
03:45 16.8 °F /  -8.4 °C 7.4 °F /  -13.7 °C 30.61 in /  1036.5 hPa WNW 4.1 mph /  6.6 km/h 29.0 mph /  46.7 km/h 66 % 0.00 in /  0 mm
03:50 16.7 °F /  -8.5 °C 7.6 °F /  -13.6 °C 30.62 in /  1036.8 hPa SW 2.8 mph /  4.5 km/h 29.0 mph /  46.7 km/h 67 % 0.00 in /  0 mm
03:55 16.7 °F /  -8.5 °C 7.6 °F /  -13.6 °C 30.62 in /  1036.8 hPa West 1.4 mph /  2.3 km/h 29.0 mph /  46.7 km/h 67 % 0.00 in /  0 mm
04:00 16.6 °F /  -8.6 °C 7.5 °F /  -13.6 °C 30.61 in /  1036.5 hPa WSW 4.7 mph /  7.6 km/h 29.0 mph /  46.7 km/h 67 % 0.00 in /  0 mm
04:05 16.5 °F /  -8.6 °C 7.4 °F /  -13.7 °C 30.62 in /  1036.8 hPa West 2.8 mph /  4.5 km/h 29.0 mph /  46.7 km/h 67 % 0.00 in /  0 mm
04:10 16.5 °F /  -8.6 °C 7.8 °F /  -13.4 °C 30.62 in /  1036.8 hPa West 3.2 mph /  5.1 km/h 29.0 mph /  46.7 km/h 68 % 0.00 in /  0 mm
04:15 16.5 °F /  -8.6 °C 7.8 °F /  -13.4 °C 30.62 in /  1036.8 hPa West 3.7 mph /  6 km/h 29.0 mph /  46.7 km/h 68 % 0.00 in /  0 mm
04:20 16.4 °F /  -8.7 °C 7.7 °F /  -13.5 °C 30.63 in /  1037.1 hPa West 5.7 mph /  9.2 km/h 29.0 mph /  46.7 km/h 68 % 0.00 in /  0 mm
04:25 16.4 °F /  -8.7 °C 7.7 °F /  -13.5 °C 30.63 in /  1037.1 hPa WNW 4.0 mph /  6.4 km/h 29.0 mph /  46.7 km/h 68 % 0.00 in /  0 mm
04:30 16.5 °F /  -8.6 °C 8.1 °F /  -13.3 °C 30.63 in /  1037.1 hPa WNW 4.4 mph /  7.1 km/h 29.0 mph /  46.7 km/h 69 % 0.00 in /  0 mm
04:35 16.5 °F /  -8.6 °C 8.1 °F /  -13.3 °C 30.63 in /  1037.1 hPa West 3.4 mph /  5.5 km/h 29.0 mph /  46.7 km/h 69 % 0.00 in /  0 mm
04:40 16.4 °F /  -8.7 °C 8.0 °F /  -13.3 °C 30.63 in /  1037.1 hPa WSW 2.4 mph /  3.9 km/h 29.0 mph /  46.7 km/h 69 % 0.00 in /  0 mm
04:45 16.4 °F /  -8.7 °C 8.0 °F /  -13.3 °C 30.63 in /  1037.1 hPa West 5.1 mph /  8.2 km/h 29.0 mph /  46.7 km/h 69 % 0.00 in /  0 mm
04:51 16.4 °F /  -8.7 °C 8.0 °F /  -13.3 °C 30.63 in /  1037.1 hPa West 3.8 mph /  6.1 km/h 29.0 mph /  46.7 km/h 69 % 0.00 in /  0 mm
04:56 16.5 °F /  -8.6 °C 8.1 °F /  -13.3 °C 30.64 in /  1037.5 hPa West 2.8 mph /  4.5 km/h 29.0 mph /  46.7 km/h 69 % 0.00 in /  0 mm
05:01 16.5 °F /  -8.6 °C 8.1 °F /  -13.3 °C 30.63 in /  1037.1 hPa WNW 3.4 mph /  5.5 km/h 29.0 mph /  46.7 km/h 69 % 0.00 in /  0 mm
05:06 16.5 °F /  -8.6 °C 8.1 °F /  -13.3 °C 30.64 in /  1037.5 hPa NW 6.2 mph /  10 km/h 29.0 mph /  46.7 km/h 69 % 0.00 in /  0 mm
05:11 16.5 °F /  -8.6 °C 8.1 °F /  -13.3 °C 30.64 in /  1037.5 hPa NW 4.9 mph /  7.9 km/h 29.0 mph /  46.7 km/h 69 % 0.00 in /  0 mm
05:16 16.6 °F /  -8.6 °C 8.5 °F /  -13.1 °C 30.65 in /  1037.8 hPa WNW 4.5 mph /  7.2 km/h 29.0 mph /  46.7 km/h 70 % 0.00 in /  0 mm
05:21 16.6 °F /  -8.6 °C 8.5 °F /  -13.1 °C 30.65 in /  1037.8 hPa West 5.4 mph /  8.7 km/h 29.0 mph /  46.7 km/h 70 % 0.00 in /  0 mm
05:26 16.6 °F /  -8.6 °C 8.2 °F /  -13.2 °C 30.65 in /  1037.8 hPa West 3.0 mph /  4.8 km/h 29.0 mph /  46.7 km/h 69 % 0.00 in /  0 mm
05:31 16.6 °F /  -8.6 °C 8.2 °F /  -13.2 °C 30.65 in /  1037.8 hPa NW 7.2 mph /  11.6 km/h 29.0 mph /  46.7 km/h 69 % 0.00 in /  0 mm
05:36 16.7 °F /  -8.5 °C 8.3 °F /  -13.2 °C 30.65 in /  1037.8 hPa WNW 1.9 mph /  3.1 km/h 29.0 mph /  46.7 km/h 69 % 0.00 in /  0 mm
05:41 16.7 °F /  -8.5 °C 8.3 °F /  -13.2 °C 30.65 in /  1037.8 hPa WNW 3.1 mph /  5 km/h 29.0 mph /  46.7 km/h 69 % 0.00 in /  0 mm
05:46 16.7 °F /  -8.5 °C 8.3 °F /  -13.2 °C 30.65 in /  1037.8 hPa NNW 4.9 mph /  7.9 km/h 29.0 mph /  46.7 km/h 69 % 0.00 in /  0 mm
05:51 16.6 °F /  -8.6 °C 7.9 °F /  -13.4 °C 30.65 in /  1037.8 hPa WNW 4.1 mph /  6.6 km/h 29.0 mph /  46.7 km/h 68 % 0.00 in /  0 mm
05:56 16.6 °F /  -8.6 °C 7.9 °F /  -13.4 °C 30.65 in /  1037.8 hPa WNW 5.9 mph /  9.5 km/h 29.0 mph /  46.7 km/h 68 % 0.00 in /  0 mm
06:01 16.6 °F /  -8.6 °C 8.2 °F /  -13.2 °C 30.65 in /  1037.8 hPa WNW 3.5 mph /  5.6 km/h 29.0 mph /  46.7 km/h 69 % 0.00 in /  0 mm
06:06 16.6 °F /  -8.6 °C 8.2 °F /  -13.2 °C 30.66 in /  1038.1 hPa WNW 4.1 mph /  6.6 km/h 29.0 mph /  46.7 km/h 69 % 0.00 in /  0 mm
06:12 16.6 °F /  -8.6 °C 7.9 °F /  -13.4 °C 30.65 in /  1037.8 hPa NW 4.6 mph /  7.4 km/h 29.0 mph /  46.7 km/h 68 % 0.00 in /  0 mm
06:17 16.6 °F /  -8.6 °C 7.9 °F /  -13.4 °C 30.65 in /  1037.8 hPa WNW 1.9 mph /  3.1 km/h 29.0 mph /  46.7 km/h 68 % 0.00 in /  0 mm
06:22 16.5 °F /  -8.6 °C 8.1 °F /  -13.3 °C 30.65 in /  1037.8 hPa WNW 5.7 mph /  9.2 km/h 29.0 mph /  46.7 km/h 69 % 0.00 in /  0 mm
06:27 16.5 °F /  -8.6 °C 8.1 °F /  -13.3 °C 30.65 in /  1037.8 hPa NNW 3.6 mph /  5.8 km/h 29.0 mph /  46.7 km/h 69 % 0.00 in /  0 mm
06:32 16.4 °F /  -8.7 °C 8.0 °F /  -13.3 °C 30.65 in /  1037.8 hPa NW 3.8 mph /  6.1 km/h 29.0 mph /  46.7 km/h 69 % 0.00 in /  0 mm
06:37 16.4 °F /  -8.7 °C 7.7 °F /  -13.5 °C 30.65 in /  1037.8 hPa WSW 3.6 mph /  5.8 km/h 29.0 mph /  46.7 km/h 68 % 0.00 in /  0 mm
06:42 16.3 °F /  -8.7 °C 7.9 °F /  -13.4 °C 30.65 in /  1037.8 hPa WNW 2.8 mph /  4.5 km/h 29.0 mph /  46.7 km/h 69 % 0.00 in /  0 mm
06:47 16.3 °F /  -8.7 °C 7.9 °F /  -13.4 °C 30.65 in /  1037.8 hPa WNW 3.4 mph /  5.5 km/h 29.0 mph /  46.7 km/h 69 % 0.00 in /  0 mm
06:52 16.2 °F /  -8.8 °C 7.5 °F /  -13.6 °C 30.65 in /  1037.8 hPa WNW 1.9 mph /  3.1 km/h 29.0 mph /  46.7 km/h 68 % 0.00 in /  0 mm
06:57 16.1 °F /  -8.8 °C 7.7 °F /  -13.5 °C 30.64 in /  1037.5 hPa NW 2.2 mph /  3.5 km/h 29.0 mph /  46.7 km/h 69 % 0.00 in /  0 mm
07:02 16.1 °F /  -8.8 °C 7.7 °F /  -13.5 °C 30.65 in /  1037.8 hPa NW 1.3 mph /  2.1 km/h 29.0 mph /  46.7 km/h 69 % 0.00 in /  0 mm
07:07 16.1 °F /  -8.8 °C 7.7 °F /  -13.5 °C 30.64 in /  1037.5 hPa WNW 1.3 mph /  2.1 km/h 29.0 mph /  46.7 km/h 69 % 0.00 in /  0 mm
07:12 16.0 °F /  -8.9 °C 7.9 °F /  -13.4 °C 30.65 in /  1037.8 hPa NW 3.0 mph /  4.8 km/h 29.0 mph /  46.7 km/h 70 % 0.00 in /  0 mm
07:17 15.9 °F /  -8.9 °C 7.8 °F /  -13.4 °C 30.65 in /  1037.8 hPa WNW 3.6 mph /  5.8 km/h 29.0 mph /  46.7 km/h 70 % 0.00 in /  0 mm
07:22 16.0 °F /  -8.9 °C 7.9 °F /  -13.4 °C 30.65 in /  1037.8 hPa NW 1.8 mph /  2.9 km/h 29.0 mph /  46.7 km/h 70 % 0.00 in /  0 mm
07:27 16.0 °F /  -8.9 °C 8.3 °F /  -13.2 °C 30.65 in /  1037.8 hPa WNW 2.8 mph /  4.5 km/h 29.0 mph /  46.7 km/h 71 % 0.00 in /  0 mm
07:32 16.0 °F /  -8.9 °C 8.3 °F /  -13.2 °C 30.66 in /  1038.1 hPa WNW 2.2 mph /  3.5 km/h 29.0 mph /  46.7 km/h 71 % 0.00 in /  0 mm
07:38 16.0 °F /  -8.9 °C 8.3 °F /  -13.2 °C 30.66 in /  1038.1 hPa WSW 2.3 mph /  3.7 km/h 29.0 mph /  46.7 km/h 71 % 0.00 in /  0 mm
07:43 16.1 °F /  -8.8 °C 8.3 °F /  -13.2 °C 30.66 in /  1038.1 hPa WSW 1.0 mph /  1.6 km/h 29.0 mph /  46.7 km/h 71 % 0.00 in /  0 mm
07:48 16.1 °F /  -8.8 °C 8.3 °F /  -13.2 °C 30.66 in /  1038.1 hPa West 2.3 mph /  3.7 km/h 29.0 mph /  46.7 km/h 71 % 0.00 in /  0 mm
07:53 16.2 °F /  -8.8 °C 8.1 °F /  -13.3 °C 30.66 in /  1038.1 hPa WNW 2.6 mph /  4.2 km/h 29.0 mph /  46.7 km/h 70 % 0.00 in /  0 mm
07:58 16.3 °F /  -8.7 °C 8.2 °F /  -13.2 °C 30.66 in /  1038.1 hPa West 2.8 mph /  4.5 km/h 29.0 mph /  46.7 km/h 70 % 0.00 in /  0 mm
08:01 16.4 °F /  -8.7 °C 8.0 °F /  -13.3 °C 30.66 in /  1038.1 hPa West 1.6 mph /  2.6 km/h 29.0 mph /  46.7 km/h 69 % 0.00 in /  0 mm
08:06 16.6 °F /  -8.6 °C 8.2 °F /  -13.2 °C 30.66 in /  1038.1 hPa West 0.6 mph /  1 km/h 29.0 mph /  46.7 km/h 69 % 0.00 in /  0 mm
08:11 16.7 °F /  -8.5 °C 8.3 °F /  -13.2 °C 30.67 in /  1038.5 hPa West 1.2 mph /  1.9 km/h 29.0 mph /  46.7 km/h 69 % 0.00 in /  0 mm
08:16 16.8 °F /  -8.4 °C 8.4 °F /  -13.1 °C 30.67 in /  1038.5 hPa SW 2.7 mph /  4.3 km/h 29.0 mph /  46.7 km/h 69 % 0.00 in /  0 mm
08:21 17.0 °F /  -8.3 °C 8.9 °F /  -12.8 °C 30.67 in /  1038.5 hPa SW 0.1 mph /  0.2 km/h 29.0 mph /  46.7 km/h 70 % 0.00 in /  0 mm
08:26 17.1 °F /  -8.3 °C 9.0 °F /  -12.8 °C 30.68 in /  1038.8 hPa SW 1.5 mph /  2.4 km/h 29.0 mph /  46.7 km/h 70 % 0.00 in /  0 mm
08:31 17.3 °F /  -8.2 °C 9.5 °F /  -12.5 °C 30.68 in /  1038.8 hPa SW 1.4 mph /  2.3 km/h 29.0 mph /  46.7 km/h 71 % 0.00 in /  0 mm
08:36 17.4 °F /  -8.1 °C 9.6 °F /  -12.4 °C 30.69 in /  1039.2 hPa SW 2.7 mph /  4.3 km/h 29.0 mph /  46.7 km/h 71 % 0.00 in /  0 mm
08:41 17.6 °F /  -8 °C 9.5 °F /  -12.5 °C 30.69 in /  1039.2 hPa WSW 2.1 mph /  3.4 km/h 29.0 mph /  46.7 km/h 70 % 0.00 in /  0 mm
08:46 17.9 °F /  -7.8 °C 9.8 °F /  -12.3 °C 30.69 in /  1039.2 hPa SW 3.4 mph /  5.5 km/h 29.0 mph /  46.7 km/h 70 % 0.00 in /  0 mm
08:51 18.1 °F /  -7.7 °C 10.0 °F /  -12.2 °C 30.69 in /  1039.2 hPa WSW 1.6 mph /  2.6 km/h 29.0 mph /  46.7 km/h 70 % 0.00 in /  0 mm
08:56 18.4 °F /  -7.6 °C 10.2 °F /  -12.1 °C 30.70 in /  1039.5 hPa SW 3.9 mph /  6.3 km/h 29.0 mph /  46.7 km/h 70 % 0.00 in /  0 mm
09:01 18.6 °F /  -7.4 °C 10.4 °F /  -12 °C 30.70 in /  1039.5 hPa WSW 3.6 mph /  5.8 km/h 29.0 mph /  46.7 km/h 70 % 0.00 in /  0 mm
09:06 18.9 °F /  -7.3 °C 10.4 °F /  -12 °C 30.70 in /  1039.5 hPa West 2.3 mph /  3.7 km/h 29.0 mph /  46.7 km/h 69 % 0.00 in /  0 mm
09:12 19.2 °F /  -7.1 °C 10.7 °F /  -11.8 °C 30.71 in /  1039.8 hPa SW 3.0 mph /  4.8 km/h 29.0 mph /  46.7 km/h 69 % 0.00 in /  0 mm
09:17 19.5 °F /  -6.9 °C 11.0 °F /  -11.7 °C 30.71 in /  1039.8 hPa WNW 1.7 mph /  2.7 km/h 29.0 mph /  46.7 km/h 69 % 0.00 in /  0 mm
09:22 19.7 °F /  -6.8 °C 10.8 °F /  -11.8 °C 30.72 in /  1040.2 hPa WNW 2.1 mph /  3.4 km/h 29.0 mph /  46.7 km/h 68 % 0.00 in /  0 mm
09:27 19.9 °F /  -6.7 °C 11.0 °F /  -11.7 °C 30.72 in /  1040.2 hPa West 4.5 mph /  7.2 km/h 29.0 mph /  46.7 km/h 68 % 0.00 in /  0 mm
09:32 20.0 °F /  -6.7 °C 10.8 °F /  -11.8 °C 30.72 in /  1040.2 hPa WSW 4.2 mph /  6.8 km/h 29.0 mph /  46.7 km/h 67 % 0.00 in /  0 mm
09:37 20.1 °F /  -6.6 °C 10.6 °F /  -11.9 °C 30.73 in /  1040.5 hPa WNW 3.3 mph /  5.3 km/h 29.0 mph /  46.7 km/h 66 % 0.00 in /  0 mm
09:42 20.1 °F /  -6.6 °C 10.2 °F /  -12.1 °C 30.73 in /  1040.5 hPa WSW 4.3 mph /  6.9 km/h 29.0 mph /  46.7 km/h 65 % 0.00 in /  0 mm
09:47 20.1 °F /  -6.6 °C 10.2 °F /  -12.1 °C 30.73 in /  1040.5 hPa WNW 2.4 mph /  3.9 km/h 29.0 mph /  46.7 km/h 65 % 0.00 in /  0 mm
09:52 20.2 °F /  -6.6 °C 10.3 °F /  -12.1 °C 30.73 in /  1040.5 hPa WSW 3.5 mph /  5.6 km/h 29.0 mph /  46.7 km/h 65 % 0.00 in /  0 mm
09:57 20.3 °F /  -6.5 °C 10.4 °F /  -12 °C 30.73 in /  1040.5 hPa NW 5.6 mph /  9 km/h 29.0 mph /  46.7 km/h 65 % 0.00 in /  0 mm
10:02 20.4 °F /  -6.4 °C 10.5 °F /  -11.9 °C 30.74 in /  1040.9 hPa West 4.9 mph /  7.9 km/h 29.0 mph /  46.7 km/h 65 % 0.00 in /  0 mm
10:07 20.5 °F /  -6.4 °C 10.6 °F /  -11.9 °C 30.73 in /  1040.5 hPa NW 4.6 mph /  7.4 km/h 29.0 mph /  46.7 km/h 65 % 0.00 in /  0 mm
10:13 20.7 °F /  -6.3 °C 10.8 °F /  -11.8 °C 30.73 in /  1040.5 hPa NW 3.6 mph /  5.8 km/h 29.0 mph /  46.7 km/h 65 % 0.00 in /  0 mm
10:18 20.8 °F /  -6.2 °C 10.5 °F /  -11.9 °C 30.73 in /  1040.5 hPa SW 3.8 mph /  6.1 km/h 29.0 mph /  46.7 km/h 64 % 0.00 in /  0 mm
10:23 20.9 °F /  -6.2 °C 10.6 °F /  -11.9 °C 30.72 in /  1040.2 hPa WSW 2.0 mph /  3.2 km/h 29.0 mph /  46.7 km/h 64 % 0.00 in /  0 mm
10:28 21.1 °F /  -6.1 °C 10.5 °F /  -11.9 °C 30.73 in /  1040.5 hPa WNW 0.7 mph /  1.1 km/h 29.0 mph /  46.7 km/h 63 % 0.00 in /  0 mm
10:33 21.2 °F /  -6 °C 10.6 °F /  -11.9 °C 30.72 in /  1040.2 hPa WSW 3.1 mph /  5 km/h 29.0 mph /  46.7 km/h 63 % 0.00 in /  0 mm
10:38 21.4 °F /  -5.9 °C 11.1 °F /  -11.6 °C 30.72 in /  1040.2 hPa SW 3.2 mph /  5.1 km/h 29.0 mph /  46.7 km/h 64 % 0.00 in /  0 mm
10:43 21.5 °F /  -5.8 °C 10.8 °F /  -11.8 °C 30.72 in /  1040.2 hPa West 3.6 mph /  5.8 km/h 29.0 mph /  46.7 km/h 63 % 0.00 in /  0 mm
10:48 21.6 °F /  -5.8 °C 10.9 °F /  -11.7 °C 30.71 in /  1039.8 hPa West 3.5 mph /  5.6 km/h 29.0 mph /  46.7 km/h 63 % 0.00 in /  0 mm
10:53 21.4 °F /  -5.9 °C 10.4 °F /  -12 °C 30.71 in /  1039.8 hPa NW 3.6 mph /  5.8 km/h 29.0 mph /  46.7 km/h 62 % 0.00 in /  0 mm
10:58 21.5 °F /  -5.8 °C 10.8 °F /  -11.8 °C 30.71 in /  1039.8 hPa West 1.9 mph /  3.1 km/h 29.0 mph /  46.7 km/h 63 % 0.00 in /  0 mm
11:03 21.6 °F /  -5.8 °C 10.9 °F /  -11.7 °C 30.71 in /  1039.8 hPa WNW 5.1 mph /  8.2 km/h 29.0 mph /  46.7 km/h 63 % 0.00 in /  0 mm
11:08 21.8 °F /  -5.7 °C 10.8 °F /  -11.8 °C 30.70 in /  1039.5 hPa SSW 1.1 mph /  1.8 km/h 29.0 mph /  46.7 km/h 62 % 0.00 in /  0 mm
11:13 22.1 °F /  -5.5 °C 11.1 °F /  -11.6 °C 30.70 in /  1039.5 hPa NW 3.7 mph /  6 km/h 29.0 mph /  46.7 km/h 62 % 0.00 in /  0 mm
11:18 22.3 °F /  -5.4 °C 10.9 °F /  -11.7 °C 30.69 in /  1039.2 hPa SSW 2.0 mph /  3.2 km/h 29.0 mph /  46.7 km/h 61 % 0.00 in /  0 mm
11:23 22.5 °F /  -5.3 °C 11.1 °F /  -11.6 °C 30.69 in /  1039.2 hPa SW 3.9 mph /  6.3 km/h 29.0 mph /  46.7 km/h 61 % 0.00 in /  0 mm
11:28 22.6 °F /  -5.2 °C 10.8 °F /  -11.8 °C 30.69 in /  1039.2 hPa WSW 2.4 mph /  3.9 km/h 29.0 mph /  46.7 km/h 60 % 0.00 in /  0 mm
11:33 22.5 °F /  -5.3 °C 10.7 °F /  -11.8 °C 30.69 in /  1039.2 hPa West 5.1 mph /  8.2 km/h 29.0 mph /  46.7 km/h 60 % 0.00 in /  0 mm
11:38 22.4 °F /  -5.3 °C 11.0 °F /  -11.7 °C 30.69 in /  1039.2 hPa WSW 2.7 mph /  4.3 km/h 29.0 mph /  46.7 km/h 61 % 0.00 in /  0 mm
11:43 22.6 °F /  -5.2 °C 11.5 °F /  -11.4 °C 30.68 in /  1038.8 hPa West 3.4 mph /  5.5 km/h 29.0 mph /  46.7 km/h 62 % 0.00 in /  0 mm
11:48 22.7 °F /  -5.2 °C 11.6 °F /  -11.3 °C 30.68 in /  1038.8 hPa SW 3.8 mph /  6.1 km/h 29.0 mph /  46.7 km/h 62 % 0.00 in /  0 mm
11:49 22.7 °F /  -5.2 °C 11.6 °F /  -11.3 °C 30.68 in /  1038.8 hPa SW 3.7 mph /  6 km/h 29.0 mph /  46.7 km/h 62 % 0.00 in /  0 mm
11:54 22.7 °F /  -5.2 °C 11.6 °F /  -11.3 °C 30.68 in /  1038.8 hPa SW 3.2 mph /  5.1 km/h 29.0 mph /  46.7 km/h 62 % 0.00 in /  0 mm
11:59 22.9 °F /  -5.1 °C 11.4 °F /  -11.4 °C 30.67 in /  1038.5 hPa WSW 2.8 mph /  4.5 km/h 29.0 mph /  46.7 km/h 61 % 0.00 in /  0 mm
12:04 22.9 °F /  -5.1 °C 11.4 °F /  -11.4 °C 30.67 in /  1038.5 hPa West 1.8 mph /  2.9 km/h 29.0 mph /  46.7 km/h 61 % 0.00 in /  0 mm
12:09 22.8 °F /  -5.1 °C 11.3 °F /  -11.5 °C 30.67 in /  1038.5 hPa SSW 2.8 mph /  4.5 km/h 29.0 mph /  46.7 km/h 61 % 0.00 in /  0 mm
12:14 22.8 °F /  -5.1 °C 11.0 °F /  -11.7 °C 30.66 in /  1038.1 hPa West 2.2 mph /  3.5 km/h 29.0 mph /  46.7 km/h 60 % 0.00 in /  0 mm
12:19 22.7 °F /  -5.2 °C 10.9 °F /  -11.7 °C 30.66 in /  1038.1 hPa West 2.5 mph /  4 km/h 29.0 mph /  46.7 km/h 60 % 0.00 in /  0 mm
12:24 22.8 °F /  -5.1 °C 10.9 °F /  -11.7 °C 30.66 in /  1038.1 hPa West 1.0 mph /  1.6 km/h 4.0 mph /  6.4 km/h 60 % 0.00 in /  0 mm
12:29 22.9 °F /  -5.1 °C 11.1 °F /  -11.6 °C 30.66 in /  1038.1 hPa West 1.0 mph /  1.6 km/h 6.0 mph /  9.7 km/h 60 % 0.00 in /  0 mm
12:34 23.0 °F /  -5 °C 11.2 °F /  -11.6 °C 30.66 in /  1038.1 hPa WNW 1.0 mph /  1.6 km/h 6.0 mph /  9.7 km/h 60 % 0.00 in /  0 mm
12:39 23.0 °F /  -5 °C 11.2 °F /  -11.6 °C 30.65 in /  1037.8 hPa WNW 1.0 mph /  1.6 km/h 4.0 mph /  6.4 km/h 60 % 0.00 in /  0 mm
12:44 23.0 °F /  -5 °C 11.2 °F /  -11.6 °C 30.66 in /  1038.1 hPa WNW 2.0 mph /  3.2 km/h 3.0 mph /  4.8 km/h 60 % 0.00 in /  0 mm
12:49 23.1 °F /  -4.9 °C 11.3 °F /  -11.5 °C 30.65 in /  1037.8 hPa Calm   3.0 mph /  4.8 km/h 60 % 0.00 in /  0 mm
12:54 23.1 °F /  -4.9 °C 11.3 °F /  -11.5 °C 30.65 in /  1037.8 hPa West 2.0 mph /  3.2 km/h 5.0 mph /  8 km/h 60 % 0.00 in /  0 mm
12:59 23.2 °F /  -4.9 °C 11.0 °F /  -11.7 °C 30.65 in /  1037.8 hPa West 1.0 mph /  1.6 km/h 29.0 mph /  46.7 km/h 59 % 0.00 in /  0 mm
13:04 23.3 °F /  -4.8 °C 11.4 °F /  -11.4 °C 30.65 in /  1037.8 hPa West 0.8 mph /  1.3 km/h 29.0 mph /  46.7 km/h 60 % 0.00 in /  0 mm
13:09 23.4 °F /  -4.8 °C 11.2 °F /  -11.6 °C 30.66 in /  1038.1 hPa SW 2.1 mph /  3.4 km/h 29.0 mph /  46.7 km/h 59 % 0.00 in /  0 mm
13:14 23.5 °F /  -4.7 °C 11.3 °F /  -11.5 °C 30.66 in /  1038.1 hPa WNW 2.3 mph /  3.7 km/h 29.0 mph /  46.7 km/h 59 % 0.00 in /  0 mm
13:19 23.5 °F /  -4.7 °C 11.3 °F /  -11.5 °C 30.66 in /  1038.1 hPa West 1.6 mph /  2.6 km/h 29.0 mph /  46.7 km/h 59 % 0.00 in /  0 mm
13:24 23.6 °F /  -4.7 °C 11.4 °F /  -11.4 °C 30.66 in /  1038.1 hPa WSW 3.5 mph /  5.6 km/h 29.0 mph /  46.7 km/h 59 % 0.00 in /  0 mm
13:29 23.6 °F /  -4.7 °C 11.4 °F /  -11.4 °C 30.67 in /  1038.5 hPa WSW 1.1 mph /  1.8 km/h 29.0 mph /  46.7 km/h 59 % 0.00 in /  0 mm
13:34 23.6 °F /  -4.7 °C 11.7 °F /  -11.3 °C 30.67 in /  1038.5 hPa WSW 0.6 mph /  1 km/h 29.0 mph /  46.7 km/h 60 % 0.00 in /  0 mm
13:39 23.7 °F /  -4.6 °C 11.4 °F /  -11.4 °C 30.67 in /  1038.5 hPa WSW 2.7 mph /  4.3 km/h 29.0 mph /  46.7 km/h 59 % 0.00 in /  0 mm
13:45 23.6 °F /  -4.7 °C 11.4 °F /  -11.4 °C 30.66 in /  1038.1 hPa WNW 5.0 mph /  8 km/h 29.0 mph /  46.7 km/h 59 % 0.00 in /  0 mm
13:50 23.6 °F /  -4.7 °C 11.4 °F /  -11.4 °C 30.66 in /  1038.1 hPa WSW 3.0 mph /  4.8 km/h 29.0 mph /  46.7 km/h 59 % 0.00 in /  0 mm
13:55 23.7 °F /  -4.6 °C 11.4 °F /  -11.4 °C 30.66 in /  1038.1 hPa West 1.4 mph /  2.3 km/h 29.0 mph /  46.7 km/h 59 % 0.00 in /  0 mm
14:00 23.9 °F /  -4.5 °C 11.6 °F /  -11.3 °C 30.66 in /  1038.1 hPa WSW 1.9 mph /  3.1 km/h 29.0 mph /  46.7 km/h 59 % 0.00 in /  0 mm
14:05 23.9 °F /  -4.5 °C 11.6 °F /  -11.3 °C 30.65 in /  1037.8 hPa West 3.6 mph /  5.8 km/h 29.0 mph /  46.7 km/h 59 % 0.00 in /  0 mm
14:10 23.9 °F /  -4.5 °C 11.6 °F /  -11.3 °C 30.65 in /  1037.8 hPa West 2.8 mph /  4.5 km/h 29.0 mph /  46.7 km/h 59 % 0.00 in /  0 mm
14:15 23.9 °F /  -4.5 °C 11.6 °F /  -11.3 °C 30.65 in /  1037.8 hPa West 2.1 mph /  3.4 km/h 29.0 mph /  46.7 km/h 59 % 0.00 in /  0 mm
14:20 23.9 °F /  -4.5 °C 12.0 °F /  -11.1 °C 30.65 in /  1037.8 hPa West 3.3 mph /  5.3 km/h 29.0 mph /  46.7 km/h 60 % 0.00 in /  0 mm
14:25 23.9 °F /  -4.5 °C 11.6 °F /  -11.3 °C 30.66 in /  1038.1 hPa Calm   29.0 mph /  46.7 km/h 59 % 0.00 in /  0 mm
14:30 23.9 °F /  -4.5 °C 11.3 °F /  -11.5 °C 30.65 in /  1037.8 hPa SW 2.7 mph /  4.3 km/h 29.0 mph /  46.7 km/h 58 % 0.00 in /  0 mm
14:35 23.9 °F /  -4.5 °C 11.3 °F /  -11.5 °C 30.65 in /  1037.8 hPa West 3.5 mph /  5.6 km/h 29.0 mph /  46.7 km/h 58 % 0.00 in /  0 mm
14:40 23.9 °F /  -4.5 °C 10.9 °F /  -11.7 °C 30.65 in /  1037.8 hPa WSW 1.7 mph /  2.7 km/h 29.0 mph /  46.7 km/h 57 % 0.00 in /  0 mm
14:45 23.9 °F /  -4.5 °C 10.5 °F /  -11.9 °C 30.65 in /  1037.8 hPa South 1.4 mph /  2.3 km/h 29.0 mph /  46.7 km/h 56 % 0.00 in /  0 mm
14:50 23.8 °F /  -4.6 °C 10.0 °F /  -12.2 °C 30.65 in /  1037.8 hPa SW 2.9 mph /  4.7 km/h 29.0 mph /  46.7 km/h 55 % 0.00 in /  0 mm
14:55 23.8 °F /  -4.6 °C 10.0 °F /  -12.2 °C 30.65 in /  1037.8 hPa SW 2.2 mph /  3.5 km/h 29.0 mph /  46.7 km/h 55 % 0.00 in /  0 mm
15:01 23.7 °F /  -4.6 °C 10.3 °F /  -12.1 °C 30.65 in /  1037.8 hPa WSW 2.5 mph /  4 km/h 29.0 mph /  46.7 km/h 56 % 0.00 in /  0 mm
15:06 23.8 °F /  -4.6 °C 10.4 °F /  -12 °C 30.65 in /  1037.8 hPa WSW 2.4 mph /  3.9 km/h 29.0 mph /  46.7 km/h 56 % 0.00 in /  0 mm
15:11 23.8 °F /  -4.6 °C 10.8 °F /  -11.8 °C 30.65 in /  1037.8 hPa SSW 2.2 mph /  3.5 km/h 29.0 mph /  46.7 km/h 57 % 0.00 in /  0 mm
15:16 23.8 °F /  -4.6 °C 10.4 °F /  -12 °C 30.65 in /  1037.8 hPa SW 0.6 mph /  1 km/h 29.0 mph /  46.7 km/h 56 % 0.00 in /  0 mm
15:21 23.9 °F /  -4.5 °C 10.5 °F /  -11.9 °C 30.64 in /  1037.5 hPa SW 0.9 mph /  1.4 km/h 29.0 mph /  46.7 km/h 56 % 0.00 in /  0 mm
15:26 24.0 °F /  -4.4 °C 10.6 °F /  -11.9 °C 30.65 in /  1037.8 hPa South 1.6 mph /  2.6 km/h 29.0 mph /  46.7 km/h 56 % 0.00 in /  0 mm
15:31 24.0 °F /  -4.4 °C 10.6 °F /  -11.9 °C 30.64 in /  1037.5 hPa SSW 0.2 mph /  0.3 km/h 29.0 mph /  46.7 km/h 56 % 0.00 in /  0 mm
15:36 24.0 °F /  -4.4 °C 10.6 °F /  -11.9 °C 30.65 in /  1037.8 hPa SW 0.7 mph /  1.1 km/h 29.0 mph /  46.7 km/h 56 % 0.00 in /  0 mm
15:41 24.0 °F /  -4.4 °C 10.6 °F /  -11.9 °C 30.65 in /  1037.8 hPa Calm   29.0 mph /  46.7 km/h 56 % 0.00 in /  0 mm
15:46 24.0 °F /  -4.4 °C 11.0 °F /  -11.7 °C 30.65 in /  1037.8 hPa SW 0.5 mph /  0.8 km/h 29.0 mph /  46.7 km/h 57 % 0.00 in /  0 mm
15:51 24.0 °F /  -4.4 °C 10.6 °F /  -11.9 °C 30.65 in /  1037.8 hPa SW 2.6 mph /  4.2 km/h 29.0 mph /  46.7 km/h 56 % 0.00 in /  0 mm
15:56 23.9 °F /  -4.5 °C 10.9 °F /  -11.7 °C 30.65 in /  1037.8 hPa SW 2.5 mph /  4 km/h 29.0 mph /  46.7 km/h 57 % 0.00 in /  0 mm
16:01 23.8 °F /  -4.6 °C 10.4 °F /  -12 °C 30.65 in /  1037.8 hPa SW 0.9 mph /  1.4 km/h 29.0 mph /  46.7 km/h 56 % 0.00 in /  0 mm
16:07 23.6 °F /  -4.7 °C 10.2 °F /  -12.1 °C 30.66 in /  1038.1 hPa WSW 1.5 mph /  2.4 km/h 29.0 mph /  46.7 km/h 56 % 0.00 in /  0 mm
16:12 23.4 °F /  -4.8 °C 10.4 °F /  -12 °C 30.66 in /  1038.1 hPa SW 1.4 mph /  2.3 km/h 29.0 mph /  46.7 km/h 57 % 0.00 in /  0 mm
16:17 23.2 °F /  -4.9 °C 10.6 °F /  -11.9 °C 30.65 in /  1037.8 hPa South 3.3 mph /  5.3 km/h 29.0 mph /  46.7 km/h 58 % 0.00 in /  0 mm
16:22 22.9 °F /  -5.1 °C 10.3 °F /  -12.1 °C 30.65 in /  1037.8 hPa SSW 0.6 mph /  1 km/h 29.0 mph /  46.7 km/h 58 % 0.00 in /  0 mm
16:27 22.7 °F /  -5.2 °C 10.5 °F /  -11.9 °C 30.65 in /  1037.8 hPa Calm   29.0 mph /  46.7 km/h 59 % 0.00 in /  0 mm
16:32 22.5 °F /  -5.3 °C 10.3 °F /  -12.1 °C 30.65 in /  1037.8 hPa WSW 0.8 mph /  1.3 km/h 29.0 mph /  46.7 km/h 59 % 0.00 in /  0 mm
16:37 22.3 °F /  -5.4 °C 10.5 °F /  -11.9 °C 30.65 in /  1037.8 hPa WSW 0.1 mph /  0.2 km/h 29.0 mph /  46.7 km/h 60 % 0.00 in /  0 mm
16:42 22.2 °F /  -5.4 °C 10.8 °F /  -11.8 °C 30.65 in /  1037.8 hPa WSW 0.1 mph /  0.2 km/h 29.0 mph /  46.7 km/h 61 % 0.00 in /  0 mm
16:47 22.0 °F /  -5.6 °C 10.6 °F /  -11.9 °C 30.65 in /  1037.8 hPa SSW 1.4 mph /  2.3 km/h 29.0 mph /  46.7 km/h 61 % 0.00 in /  0 mm
16:48 22.0 °F /  -5.6 °C 10.6 °F /  -11.9 °C 30.65 in /  1037.8 hPa SSW 0.6 mph /  1 km/h 29.0 mph /  46.7 km/h 61 % 0.00 in /  0 mm
16:53 21.8 °F /  -5.7 °C 10.8 °F /  -11.8 °C 30.65 in /  1037.8 hPa SSW 0.2 mph /  0.3 km/h 29.0 mph /  46.7 km/h 62 % 0.00 in /  0 mm
16:58 21.6 °F /  -5.8 °C 10.6 °F /  -11.9 °C 30.64 in /  1037.5 hPa SSW 0.2 mph /  0.3 km/h 29.0 mph /  46.7 km/h 62 % 0.00 in /  0 mm
17:03 21.4 °F /  -5.9 °C 10.4 °F /  -12 °C 30.64 in /  1037.5 hPa Calm   29.0 mph /  46.7 km/h 62 % 0.00 in /  0 mm
17:08 21.2 °F /  -6 °C 10.6 °F /  -11.9 °C 30.64 in /  1037.5 hPa SSW 0.9 mph /  1.4 km/h 29.0 mph /  46.7 km/h 63 % 0.00 in /  0 mm
17:13 21.1 °F /  -6.1 °C 10.5 °F /  -11.9 °C 30.64 in /  1037.5 hPa Calm   29.0 mph /  46.7 km/h 63 % 0.00 in /  0 mm
17:18 20.9 °F /  -6.2 °C 10.3 °F /  -12.1 °C 30.64 in /  1037.5 hPa Calm   29.0 mph /  46.7 km/h 63 % 0.00 in /  0 mm
17:23 20.8 °F /  -6.2 °C 9.8 °F /  -12.3 °C 30.65 in /  1037.8 hPa Calm   29.0 mph /  46.7 km/h 62 % 0.00 in /  0 mm
17:28 20.6 °F /  -6.3 °C 10.3 °F /  -12.1 °C 30.64 in /  1037.5 hPa Calm   29.0 mph /  46.7 km/h 64 % 0.00 in /  0 mm
17:33 20.4 °F /  -6.4 °C 10.1 °F /  -12.2 °C 30.64 in /  1037.5 hPa Calm   29.0 mph /  46.7 km/h 64 % 0.00 in /  0 mm
17:38 20.2 °F /  -6.6 °C 10.0 °F /  -12.2 °C 30.64 in /  1037.5 hPa Calm   29.0 mph /  46.7 km/h 64 % 0.00 in /  0 mm
17:43 19.9 °F /  -6.7 °C 9.7 °F /  -12.4 °C 30.64 in /  1037.5 hPa Calm   29.0 mph /  46.7 km/h 64 % 0.00 in /  0 mm
17:49 19.7 °F /  -6.8 °C 10.2 °F /  -12.1 °C 30.64 in /  1037.5 hPa Calm   29.0 mph /  46.7 km/h 66 % 0.00 in /  0 mm
17:54 19.4 °F /  -7 °C 10.2 °F /  -12.1 °C 30.64 in /  1037.5 hPa Calm   29.0 mph /  46.7 km/h 67 % 0.00 in /  0 mm
17:59 19.2 °F /  -7.1 °C 9.7 °F /  -12.4 °C 30.64 in /  1037.5 hPa Calm   29.0 mph /  46.7 km/h 66 % 0.00 in /  0 mm
18:04 18.9 °F /  -7.3 °C 9.7 °F /  -12.4 °C 30.65 in /  1037.8 hPa Calm   29.0 mph /  46.7 km/h 67 % 0.00 in /  0 mm
18:09 18.6 °F /  -7.4 °C 9.8 °F /  -12.3 °C 30.64 in /  1037.5 hPa Calm   29.0 mph /  46.7 km/h 68 % 0.00 in /  0 mm
18:14 18.5 °F /  -7.5 °C 9.7 °F /  -12.4 °C 30.65 in /  1037.8 hPa Calm   29.0 mph /  46.7 km/h 68 % 0.00 in /  0 mm
18:19 18.2 °F /  -7.7 °C 10.1 °F /  -12.2 °C 30.65 in /  1037.8 hPa SSW 1.0 mph /  1.6 km/h 2.0 mph /  3.2 km/h 70 % 0.00 in /  0 mm
18:24 18.0 °F /  -7.8 °C 10.2 °F /  -12.1 °C 30.66 in /  1038.1 hPa Calm   1.0 mph /  1.6 km/h 71 % 0.00 in /  0 mm
18:29 17.8 °F /  -7.9 °C 10.0 °F /  -12.2 °C 30.65 in /  1037.8 hPa Calm   29.0 mph /  46.7 km/h 71 % 0.00 in /  0 mm
18:34 17.6 °F /  -8 °C 9.8 °F /  -12.3 °C 30.65 in /  1037.8 hPa Calm     71 % 0.00 in /  0 mm
18:39 17.4 °F /  -8.1 °C 9.6 °F /  -12.4 °C 30.65 in /  1037.8 hPa Calm     71 % 0.00 in /  0 mm
18:44 17.2 °F /  -8.2 °C 9.4 °F /  -12.6 °C 30.65 in /  1037.8 hPa Calm     71 % 0.00 in /  0 mm
18:49 17.0 °F /  -8.3 °C 9.5 °F /  -12.5 °C 30.65 in /  1037.8 hPa Calm     72 % 0.00 in /  0 mm
18:54 16.8 °F /  -8.4 °C 9.3 °F /  -12.6 °C 30.65 in /  1037.8 hPa Calm   29.0 mph /  46.7 km/h 72 % 0.00 in /  0 mm
18:59 16.6 °F /  -8.6 °C 9.4 °F /  -12.6 °C 30.65 in /  1037.8 hPa Calm   29.0 mph /  46.7 km/h 73 % 0.00 in /  0 mm
19:04 16.4 °F /  -8.7 °C 9.3 °F /  -12.6 °C 30.65 in /  1037.8 hPa Calm   29.0 mph /  46.7 km/h 73 % 0.00 in /  0 mm
19:09 16.2 °F /  -8.8 °C 9.1 °F /  -12.7 °C 30.65 in /  1037.8 hPa Calm   29.0 mph /  46.7 km/h 73 % 0.00 in /  0 mm
19:14 16.1 °F /  -8.8 °C 9.3 °F /  -12.6 °C 30.65 in /  1037.8 hPa Calm   29.0 mph /  46.7 km/h 74 % 0.00 in /  0 mm
19:19 15.9 °F /  -8.9 °C 9.1 °F /  -12.7 °C 30.65 in /  1037.8 hPa Calm   29.0 mph /  46.7 km/h 74 % 0.00 in /  0 mm
19:24 15.7 °F /  -9.1 °C 8.9 °F /  -12.8 °C 30.65 in /  1037.8 hPa Calm   29.0 mph /  46.7 km/h 74 % 0.00 in /  0 mm
19:29 15.5 °F /  -9.2 °C 8.7 °F /  -12.9 °C 30.65 in /  1037.8 hPa Calm   29.0 mph /  46.7 km/h 74 % 0.00 in /  0 mm
19:34 15.4 °F /  -9.2 °C 8.6 °F /  -13 °C 30.65 in /  1037.8 hPa Calm   29.0 mph /  46.7 km/h 74 % 0.00 in /  0 mm
19:40 15.2 °F /  -9.3 °C 8.7 °F /  -12.9 °C 30.65 in /  1037.8 hPa Calm   29.0 mph /  46.7 km/h 75 % 0.00 in /  0 mm
19:45 15.1 °F /  -9.4 °C 8.6 °F /  -13 °C 30.65 in /  1037.8 hPa Calm   29.0 mph /  46.7 km/h 75 % 0.00 in /  0 mm
19:50 14.9 °F /  -9.5 °C 8.7 °F /  -12.9 °C 30.65 in /  1037.8 hPa Calm   29.0 mph /  46.7 km/h 76 % 0.00 in /  0 mm
19:55 14.8 °F /  -9.6 °C 8.6 °F /  -13 °C 30.65 in /  1037.8 hPa Calm   29.0 mph /  46.7 km/h 76 % 0.00 in /  0 mm
20:00 14.7 °F /  -9.6 °C 8.5 °F /  -13.1 °C 30.65 in /  1037.8 hPa Calm   29.0 mph /  46.7 km/h 76 % 0.00 in /  0 mm
20:05 14.6 °F /  -9.7 °C 8.7 °F /  -12.9 °C 30.65 in /  1037.8 hPa Calm   29.0 mph /  46.7 km/h 77 % 0.00 in /  0 mm
20:10 14.5 °F /  -9.7 °C 8.6 °F /  -13 °C 30.64 in /  1037.5 hPa Calm   29.0 mph /  46.7 km/h 77 % 0.00 in /  0 mm
20:15 14.5 °F /  -9.7 °C 8.9 °F /  -12.8 °C 30.64 in /  1037.5 hPa Calm   29.0 mph /  46.7 km/h 78 % 0.00 in /  0 mm
20:20 14.4 °F /  -9.8 °C 9.1 °F /  -12.7 °C 30.64 in /  1037.5 hPa Calm   29.0 mph /  46.7 km/h 79 % 0.00 in /  0 mm
20:25 14.5 °F /  -9.7 °C 9.5 °F /  -12.5 °C 30.64 in /  1037.5 hPa Calm   29.0 mph /  46.7 km/h 80 % 0.00 in /  0 mm
20:30 14.5 °F /  -9.7 °C 9.7 °F /  -12.4 °C 30.64 in /  1037.5 hPa Calm   29.0 mph /  46.7 km/h 81 % 0.00 in /  0 mm
20:35 14.6 °F /  -9.7 °C 9.8 °F /  -12.3 °C 30.63 in /  1037.1 hPa Calm   29.0 mph /  46.7 km/h 81 % 0.00 in /  0 mm
20:40 14.7 °F /  -9.6 °C 10.2 °F /  -12.1 °C 30.64 in /  1037.5 hPa Calm   29.0 mph /  46.7 km/h 82 % 0.00 in /  0 mm
20:45 14.8 °F /  -9.6 °C 10.3 °F /  -12.1 °C 30.63 in /  1037.1 hPa Calm   29.0 mph /  46.7 km/h 82 % 0.00 in /  0 mm
20:50 15.0 °F /  -9.4 °C 10.8 °F /  -11.8 °C 30.63 in /  1037.1 hPa Calm   29.0 mph /  46.7 km/h 83 % 0.00 in /  0 mm
20:55 15.1 °F /  -9.4 °C 10.9 °F /  -11.7 °C 30.63 in /  1037.1 hPa Calm   29.0 mph /  46.7 km/h 83 % 0.00 in /  0 mm
21:00 15.2 °F /  -9.3 °C 11.0 °F /  -11.7 °C 30.64 in /  1037.5 hPa Calm   29.0 mph /  46.7 km/h 83 % 0.00 in /  0 mm
21:06 15.3 °F /  -9.3 °C 11.1 °F /  -11.6 °C 30.64 in /  1037.5 hPa Calm   29.0 mph /  46.7 km/h 83 % 0.00 in /  0 mm
21:11 15.3 °F /  -9.3 °C 11.1 °F /  -11.6 °C 30.64 in /  1037.5 hPa Calm   29.0 mph /  46.7 km/h 83 % 0.00 in /  0 mm
21:16 15.3 °F /  -9.3 °C 10.8 °F /  -11.8 °C 30.64 in /  1037.5 hPa Calm   29.0 mph /  46.7 km/h 82 % 0.00 in /  0 mm
21:21 15.3 °F /  -9.3 °C 10.8 °F /  -11.8 °C 30.64 in /  1037.5 hPa Calm   29.0 mph /  46.7 km/h 82 % 0.00 in /  0 mm
21:26 15.3 °F /  -9.3 °C 10.8 °F /  -11.8 °C 30.64 in /  1037.5 hPa Calm   29.0 mph /  46.7 km/h 82 % 0.00 in /  0 mm
21:29 15.2 °F /  -9.3 °C 10.7 °F /  -11.8 °C 30.64 in /  1037.5 hPa Calm   29.0 mph /  46.7 km/h 82 % 0.00 in /  0 mm
21:34 15.1 °F /  -9.4 °C 10.6 °F /  -11.9 °C 30.65 in /  1037.8 hPa Calm   29.0 mph /  46.7 km/h 82 % 0.00 in /  0 mm
21:39 15.0 °F /  -9.4 °C 10.5 °F /  -11.9 °C 30.65 in /  1037.8 hPa Calm   29.0 mph /  46.7 km/h 82 % 0.00 in /  0 mm
21:45 15.0 °F /  -9.4 °C 10.5 °F /  -11.9 °C 30.65 in /  1037.8 hPa SSW 0.9 mph /  1.4 km/h 29.0 mph /  46.7 km/h 82 % 0.00 in /  0 mm
21:50 14.9 °F /  -9.5 °C 10.4 °F /  -12 °C 30.65 in /  1037.8 hPa SSW 0.9 mph /  1.4 km/h 29.0 mph /  46.7 km/h 82 % 0.00 in /  0 mm
21:55 14.8 °F /  -9.6 °C 10.3 °F /  -12.1 °C 30.65 in /  1037.8 hPa SSW 1.5 mph /  2.4 km/h 29.0 mph /  46.7 km/h 82 % 0.00 in /  0 mm
22:00 14.7 °F /  -9.6 °C 10.2 °F /  -12.1 °C 30.66 in /  1038.1 hPa SW 0.9 mph /  1.4 km/h 29.0 mph /  46.7 km/h 82 % 0.00 in /  0 mm
22:05 14.8 °F /  -9.6 °C 10.6 °F /  -11.9 °C 30.66 in /  1038.1 hPa SW 1.4 mph /  2.3 km/h 29.0 mph /  46.7 km/h 83 % 0.00 in /  0 mm
22:10 14.8 °F /  -9.6 °C 10.6 °F /  -11.9 °C 30.65 in /  1037.8 hPa SW 1.5 mph /  2.4 km/h 29.0 mph /  46.7 km/h 83 % 0.00 in /  0 mm
22:15 14.8 °F /  -9.6 °C 10.6 °F /  -11.9 °C 30.65 in /  1037.8 hPa SW 1.2 mph /  1.9 km/h 29.0 mph /  46.7 km/h 83 % 0.00 in /  0 mm
22:20 14.9 °F /  -9.5 °C 10.9 °F /  -11.7 °C 30.65 in /  1037.8 hPa SW 2.2 mph /  3.5 km/h 29.0 mph /  46.7 km/h 84 % 0.00 in /  0 mm
22:25 15.0 °F /  -9.4 °C 11.0 °F /  -11.7 °C 30.65 in /  1037.8 hPa WSW 1.8 mph /  2.9 km/h 29.0 mph /  46.7 km/h 84 % 0.00 in /  0 mm
22:30 15.2 °F /  -9.3 °C 11.2 °F /  -11.6 °C 30.65 in /  1037.8 hPa SW 3.3 mph /  5.3 km/h 29.0 mph /  46.7 km/h 84 % 0.00 in /  0 mm
22:35 15.4 °F /  -9.2 °C 11.4 °F /  -11.4 °C 30.65 in /  1037.8 hPa SW 3.0 mph /  4.8 km/h 29.0 mph /  46.7 km/h 84 % 0.00 in /  0 mm
22:40 15.7 °F /  -9.1 °C 11.7 °F /  -11.3 °C 30.66 in /  1038.1 hPa WSW 2.6 mph /  4.2 km/h 29.0 mph /  46.7 km/h 84 % 0.00 in /  0 mm
22:45 15.9 °F /  -8.9 °C 11.7 °F /  -11.3 °C 30.66 in /  1038.1 hPa SW 2.9 mph /  4.7 km/h 29.0 mph /  46.7 km/h 83 % 0.00 in /  0 mm
22:50 16.2 °F /  -8.8 °C 11.9 °F /  -11.2 °C 30.66 in /  1038.1 hPa SW 2.9 mph /  4.7 km/h 29.0 mph /  46.7 km/h 83 % 0.00 in /  0 mm
22:55 16.4 °F /  -8.7 °C 11.9 °F /  -11.2 °C 30.66 in /  1038.1 hPa WSW 3.8 mph /  6.1 km/h 29.0 mph /  46.7 km/h 82 % 0.00 in /  0 mm
23:00 16.7 °F /  -8.5 °C 12.2 °F /  -11 °C 30.66 in /  1038.1 hPa SW 2.9 mph /  4.7 km/h 29.0 mph /  46.7 km/h 82 % 0.00 in /  0 mm
23:06 16.9 °F /  -8.4 °C 12.1 °F /  -11.1 °C 30.66 in /  1038.1 hPa SW 2.3 mph /  3.7 km/h 29.0 mph /  46.7 km/h 81 % 0.00 in /  0 mm
23:11 17.0 °F /  -8.3 °C 11.9 °F /  -11.2 °C 30.66 in /  1038.1 hPa SW 1.8 mph /  2.9 km/h 29.0 mph /  46.7 km/h 80 % 0.00 in /  0 mm
23:16 17.2 °F /  -8.2 °C 12.1 °F /  -11.1 °C 30.65 in /  1037.8 hPa SW 1.1 mph /  1.8 km/h 29.0 mph /  46.7 km/h 80 % 0.00 in /  0 mm
23:21 17.3 °F /  -8.2 °C 11.9 °F /  -11.2 °C 30.65 in /  1037.8 hPa SW 1.8 mph /  2.9 km/h 29.0 mph /  46.7 km/h 79 % 0.00 in /  0 mm
23:26 17.4 °F /  -8.1 °C 12.0 °F /  -11.1 °C 30.65 in /  1037.8 hPa SW 1.8 mph /  2.9 km/h 29.0 mph /  46.7 km/h 79 % 0.00 in /  0 mm
23:31 17.4 °F /  -8.1 °C 11.7 °F /  -11.3 °C 30.64 in /  1037.5 hPa SW 2.1 mph /  3.4 km/h 29.0 mph /  46.7 km/h 78 % 0.00 in /  0 mm
23:36 17.5 °F /  -8.1 °C 11.8 °F /  -11.2 °C 30.64 in /  1037.5 hPa SW 2.0 mph /  3.2 km/h 29.0 mph /  46.7 km/h 78 % 0.00 in /  0 mm
23:41 17.5 °F /  -8.1 °C 11.8 °F /  -11.2 °C 30.64 in /  1037.5 hPa SW 1.3 mph /  2.1 km/h 29.0 mph /  46.7 km/h 78 % 0.00 in /  0 mm
23:46 17.5 °F /  -8.1 °C 11.8 °F /  -11.2 °C 30.64 in /  1037.5 hPa WSW 1.0 mph /  1.6 km/h 29.0 mph /  46.7 km/h 78 % 0.00 in /  0 mm
23:51 17.5 °F /  -8.1 °C 11.5 °F /  -11.4 °C 30.64 in /  1037.5 hPa WSW 1.1 mph /  1.8 km/h 29.0 mph /  46.7 km/h 77 % 0.00 in /  0 mm
23:56 17.5 °F /  -8.1 °C 11.5 °F /  -11.4 °C 30.63 in /  1037.1 hPa Calm   29.0 mph /  46.7 km/h 77 % 0.00 in /  0 mm
Crab Meadow Weather
Compliments of Weather Underground - 3 mb

Script developed by  Jim McMurry - jmcmurry@mwt.net Adapted for the template by  Wim van der Kuil - Leuven-Template.eu

Weather Terms: Warning - A warning is issued when a hazardous weather or hydrologic event is occurring, imminent or likely. A warning means weather conditions pose a threat to life or property. People in the path of the storm need to take protective action.